| time (UTC) | temp C | wind direction | speed KPH | gust KPH | rain 1hr cm | rain 24hr cm | rain mn cm | humidity % | barometer mb |
| 20260906111120 | 22 | 329 | 0.0 | 0.0 | 0.00 | 0.25 | 0.00 | 99 | 1018.0 |
| 20260906110615 | 22 | 329 | 0.0 | 0.0 | 0.00 | 0.25 | 0.00 | 99 | 1017.9 |
| 20260906110114 | 22 | 329 | 0.0 | 0.0 | 0.00 | 0.25 | 0.00 | 99 | 1017.8 |
| 20260906105616 | 22 | 329 | 0.0 | 0.0 | 0.00 | 0.25 | 0.00 | 99 | 1017.7 |
| 20260906105116 | 22 | 329 | 0.0 | 0.0 | 0.00 | 0.25 | 0.00 | 99 | 1017.5 |
| 20260906104615 | 22 | 329 | 0.0 | 0.0 | 0.00 | 0.25 | 0.00 | 99 | 1017.6 |
| 20260906104116 | 22 | 330 | 0.0 | 0.0 | 0.00 | 0.25 | 0.00 | 99 | 1017.4 |
| 20260906103616 | 22 | 330 | 0.0 | 0.0 | 0.00 | 0.25 | 0.00 | 99 | 1017.5 |
| 20260906103117 | 22 | 330 | 0.0 | 0.0 | 0.00 | 0.25 | 0.00 | 99 | 1017.4 |
| 20260906102617 | 22 | 330 | 0.0 | 0.0 | 0.00 | 0.25 | 0.00 | 99 | 1017.5 |
| 20260906102112 | 21 | 330 | 0.0 | 0.0 | 0.00 | 0.25 | 0.00 | 99 | 1017.5 |
| 20260906101611 | 21 | 327 | 0.0 | 0.0 | 0.00 | 0.25 | 0.00 | 100 | 1017.4 |
| 20260906101340 | 21 | 327 | 0.0 | 1.6 | 0.00 | 0.25 | 0.00 | 100 | 1017.2 |
| 20260906095837 | 21 | 329 | 0.0 | 1.6 | 0.00 | 0.25 | 0.00 | 100 | 1016.8 |
| 20260906094832 | 21 | 323 | 0.0 | 0.0 | 0.00 | 0.25 | 0.00 | 100 | 1016.9 |
| 20260906093609 | 21 | 323 | 0.0 | 3.2 | 0.00 | 0.25 | 0.00 | 100 | 1016.9 |
| 20260906093110 | 21 | 328 | 0.0 | 3.2 | 0.00 | 0.25 | 0.00 | 100 | 1016.8 |
| 20260906092610 | 21 | 60 | 0.0 | 1.6 | 0.00 | 0.25 | 0.00 | 100 | 1016.7 |
| 20260906092107 | 21 | 60 | 0.0 | 1.6 | 0.00 | 0.25 | 0.00 | 100 | 1016.7 |
| 20260906091605 | 21 | 60 | 0.0 | 0.0 | 0.00 | 0.25 | 0.00 | 100 | 1016.7 |
| 20260906091104 | 21 | 60 | 0.0 | 1.6 | 0.00 | 0.25 | 0.00 | 100 | 1016.7 |
| 20260906090606 | 21 | 60 | 0.0 | 1.6 | 0.00 | 0.25 | 0.00 | 100 | 1016.5 |
| 20260906090104 | 21 | 70 | 0.0 | 0.0 | 0.00 | 0.25 | 0.00 | 100 | 1016.5 |
| 20260906085601 | 21 | 98 | 0.0 | 0.0 | 0.00 | 0.25 | 0.00 | 100 | 1016.5 |
| 20260906085100 | 21 | 98 | 0.0 | 0.0 | 0.00 | 0.25 | 0.00 | 100 | 1016.4 |
| 20260906084601 | 21 | 98 | 0.0 | 0.0 | 0.00 | 0.25 | 0.00 | 100 | 1016.4 |
| 20260906084326 | 21 | 98 | 0.0 | 0.0 | 0.00 | 0.25 | 0.00 | 100 | 1016.4 |
| 20260906083559 | 20 | 98 | 0.0 | 0.0 | 0.00 | 0.25 | 0.00 | 100 | 1016.2 |
| 20260906083314 | 20 | 98 | 0.0 | 0.0 | 0.00 | 0.25 | 0.00 | 100 | 1016.2 |
| 20260906081548 | 21 | 98 | 0.0 | 0.0 | 0.00 | 0.25 | 0.00 | 100 | 1016.2 |
| 20260906081050 | 21 | 98 | 0.0 | 0.0 | 0.00 | 0.25 | 0.00 | 99 | 1016.1 |
| 20260906080813 | 21 | 98 | 0.0 | 0.0 | 0.00 | 0.25 | 0.00 | 99 | 1016.1 |
| 20260906080323 | 21 | 98 | 0.0 | 0.0 | 0.00 | 0.25 | 0.00 | 99 | 1016.1 |
| 20260906075546 | 20 | 98 | 0.0 | 0.0 | 0.00 | 0.25 | 0.00 | 99 | 1016.1 |
| 20260906075310 | 21 | 98 | 0.0 | 0.0 | 0.00 | 0.25 | 0.00 | 99 | 1016.0 |
| 20260906074535 | 21 | 98 | 0.0 | 0.0 | 0.00 | 0.25 | 0.00 | 99 | 1016.1 |
| 20260906074259 | 21 | 98 | 0.0 | 0.0 | 0.00 | 0.25 | 0.00 | 99 | 1016.1 |
| 20260906073523 | 21 | 98 | 0.0 | 0.0 | 0.00 | 0.25 | 0.00 | 99 | 1016.0 |
| 20260906073017 | 21 | 98 | 0.0 | 0.0 | 0.00 | 0.28 | 0.00 | 99 | 1016.1 |
| 20260906072511 | 21 | 98 | 0.0 | 0.0 | 0.00 | 0.28 | 0.00 | 99 | 1016.2 |
| 20260906072004 | 21 | 98 | 0.0 | 0.0 | 0.00 | 0.28 | 0.00 | 99 | 1016.1 |
| 20260906071459 | 21 | 98 | 0.0 | 0.0 | 0.00 | 0.28 | 0.00 | 99 | 1016.2 |
| 20260906070954 | 21 | 98 | 0.0 | 0.0 | 0.00 | 0.28 | 0.00 | 99 | 1016.2 |
| 20260906070447 | 21 | 98 | 0.0 | 0.0 | 0.00 | 0.28 | 0.00 | 98 | 1016.3 |
| 20260906065941 | 21 | 98 | 0.0 | 0.0 | 0.00 | 0.28 | 0.00 | 98 | 1016.2 |
| 20260906065435 | 21 | 98 | 0.0 | 0.0 | 0.00 | 0.28 | 0.00 | 98 | 1016.4 |
| 20260906065158 | 21 | 98 | 0.0 | 1.6 | 0.00 | 0.28 | 0.00 | 98 | 1016.4 |
| 20260906064423 | 21 | 98 | 0.0 | 1.6 | 0.00 | 0.28 | 0.00 | 98 | 1016.3 |
| 20260906063917 | 21 | 98 | 0.0 | 0.0 | 0.00 | 0.28 | 0.00 | 98 | 1016.4 |
| 20260906063635 | 21 | 98 | 0.0 | 0.0 | 0.00 | 0.28 | 0.00 | 98 | 1016.6 |
| 20260906063340 | 21 | 99 | 0.0 | 0.0 | 0.00 | 0.28 | 0.00 | 98 | 1016.6 |
| 20260906062359 | 21 | 99 | 0.0 | 0.0 | 0.00 | 0.28 | 0.00 | 98 | 1016.5 |
| 20260906061853 | 21 | 99 | 0.0 | 0.0 | 0.00 | 0.28 | 0.00 | 98 | 1016.3 |
| 20260906061822 | 21 | 99 | 0.0 | 0.0 | 0.00 | 0.28 | 0.00 | 98 | 1016.4 |
| 20260906060841 | 21 | 99 | 0.0 | 0.0 | 0.00 | 0.28 | 0.00 | 97 | 1016.4 |
| 20260906060335 | 21 | 99 | 0.0 | 0.0 | 0.00 | 0.28 | 0.00 | 97 | 1016.4 |
| 20260906055829 | 21 | 99 | 0.0 | 0.0 | 0.00 | 0.30 | 0.00 | 97 | 1016.3 |
| 20260906055323 | 21 | 99 | 0.0 | 0.0 | 0.00 | 0.30 | 0.00 | 97 | 1016.3 |
| 20260906054817 | 21 | 99 | 0.0 | 0.0 | 0.00 | 0.30 | 0.00 | 97 | 1016.4 |
| 20260906054311 | 21 | 99 | 0.0 | 0.0 | 0.00 | 0.30 | 0.00 | 96 | 1016.4 |
| 20260906053805 | 21 | 99 | 0.0 | 0.0 | 0.00 | 0.30 | 0.00 | 96 | 1016.5 |
| 20260906053258 | 21 | 99 | 0.0 | 0.0 | 0.00 | 0.30 | 0.00 | 96 | 1016.5 |
| 20260906052753 | 21 | 99 | 0.0 | 0.0 | 0.00 | 0.30 | 0.00 | 96 | 1016.5 |
| 20260906052247 | 21 | 99 | 0.0 | 0.0 | 0.00 | 0.30 | 0.00 | 95 | 1016.6 |
| 20260906051740 | 21 | 99 | 0.0 | 0.0 | 0.00 | 0.30 | 0.00 | 95 | 1016.6 |
| 20260906051235 | 21 | 99 | 0.0 | 0.0 | 0.00 | 0.30 | 0.00 | 95 | 1016.7 |
| 20260906050729 | 22 | 99 | 0.0 | 0.0 | 0.00 | 0.30 | 0.00 | 95 | 1016.7 |
| 20260906050223 | 22 | 99 | 0.0 | 0.0 | 0.00 | 0.30 | 0.00 | 94 | 1016.5 |
| 20260906045720 | 22 | 98 | 0.0 | 0.0 | 0.00 | 0.30 | 0.00 | 94 | 1016.7 |
| 20260906045212 | 22 | 98 | 0.0 | 0.0 | 0.00 | 0.30 | 0.00 | 94 | 1016.7 |
| 20260906044705 | 22 | 99 | 0.0 | 0.0 | 0.00 | 0.30 | 0.00 | 94 | 1016.8 |
| 20260906044416 | 22 | 98 | 0.0 | 0.0 | 0.00 | 0.30 | 0.00 | 94 | 1016.9 |
| 20260906043653 | 22 | 98 | 0.0 | 0.0 | 0.00 | 0.30 | 0.00 | 94 | 1016.9 |
| 20260906043413 | 22 | 99 | 0.0 | 0.0 | 0.00 | 0.30 | 0.00 | 94 | 1016.8 |
| 20260906042907 | 22 | 99 | 0.0 | 0.0 | 0.00 | 0.30 | 0.00 | 94 | 1016.8 |
| 20260906042135 | 22 | 98 | 0.0 | 0.0 | 0.00 | 0.30 | 0.00 | 94 | 1017.0 |
| 20260906041629 | 22 | 98 | 0.0 | 0.0 | 0.00 | 0.30 | 0.00 | 94 | 1017.2 |
| 20260906041123 | 22 | 99 | 0.0 | 0.0 | 0.00 | 0.30 | 0.00 | 94 | 1017.2 |
| 20260906040850 | 22 | 99 | 0.0 | 0.0 | 0.00 | 0.30 | 0.00 | 94 | 1016.9 |
| 20260906040111 | 22 | 99 | 0.0 | 0.0 | 0.00 | 0.30 | 0.00 | 93 | 1016.8 |
| 20260906035604 | 22 | 99 | 0.0 | 0.0 | 0.00 | 0.30 | 0.30 | 93 | 1016.8 |
| 20260906035058 | 22 | 99 | 0.0 | 0.0 | 0.00 | 0.30 | 0.30 | 93 | 1016.7 |
| 20260906034552 | 23 | 99 | 0.0 | 1.6 | 0.00 | 0.30 | 0.30 | 92 | 1016.8 |
| 20260906034046 | 23 | 99 | 0.0 | 3.2 | 0.00 | 0.30 | 0.30 | 93 | 1016.8 |
| 20260906033540 | 22 | 99 | 0.0 | 3.2 | 0.00 | 0.30 | 0.30 | 93 | 1016.8 |
| 20260906033034 | 22 | 238 | 0.0 | 1.6 | 0.00 | 0.30 | 0.30 | 93 | 1016.8 |
| 20260906032528 | 22 | 217 | 0.0 | 0.0 | 0.00 | 0.30 | 0.30 | 93 | 1016.8 |
| 20260906032022 | 22 | 217 | 0.0 | 0.0 | 0.00 | 0.30 | 0.30 | 93 | 1016.7 |
| 20260906031516 | 22 | 217 | 0.0 | 0.0 | 0.00 | 0.30 | 0.30 | 93 | 1016.7 |
| 20260906031013 | 22 | 217 | 0.0 | 0.0 | 0.00 | 0.30 | 0.30 | 92 | 1016.7 |
| 20260906030504 | 22 | 217 | 0.0 | 0.0 | 0.00 | 0.30 | 0.30 | 93 | 1016.8 |
| 20260906025957 | 22 | 217 | 0.0 | 0.0 | 0.00 | 0.30 | 0.30 | 92 | 1016.8 |
| 20260906025452 | 22 | 217 | 0.0 | 0.0 | 0.00 | 0.30 | 0.30 | 92 | 1016.8 |
| 20260906024946 | 23 | 217 | 0.0 | 0.0 | 0.00 | 0.30 | 0.30 | 92 | 1016.7 |
| 20260906024440 | 23 | 217 | 0.0 | 0.0 | 0.00 | 0.30 | 0.30 | 91 | 1016.8 |
| 20260906023936 | 23 | 217 | 0.0 | 0.0 | 0.00 | 0.30 | 0.30 | 91 | 1016.7 |
| 20260906023427 | 23 | 217 | 0.0 | 0.0 | 0.00 | 0.30 | 0.30 | 91 | 1016.5 |
| 20260906022922 | 23 | 217 | 0.0 | 0.0 | 0.00 | 0.30 | 0.30 | 90 | 1016.6 |
| 20260906022416 | 23 | 217 | 0.0 | 0.0 | 0.00 | 0.30 | 0.30 | 90 | 1016.6 |
| 20260906021910 | 23 | 217 | 0.0 | 0.0 | 0.00 | 0.30 | 0.30 | 90 | 1016.6 |
| 20260906021410 | 23 | 217 | 0.0 | 0.0 | 0.00 | 0.30 | 0.30 | 91 | 1016.5 |
| 20260906020910 | 23 | 217 | 0.0 | 0.0 | 0.00 | 0.30 | 0.30 | 90 | 1016.5 |
| 20260906020410 | 23 | 217 | 0.0 | 0.0 | 0.00 | 0.30 | 0.30 | 89 | 1016.4 |
| 20260906015908 | 23 | 217 | 0.0 | 0.0 | 0.00 | 0.30 | 0.30 | 89 | 1016.4 |
| 20260906015629 | 23 | 217 | 0.0 | 0.0 | 0.00 | 0.30 | 0.30 | 89 | 1016.4 |
| 20260906014902 | 23 | 217 | 0.0 | 0.0 | 0.00 | 0.30 | 0.30 | 88 | 1016.3 |
| 20260906014400 | 23 | 217 | 0.0 | 0.0 | 0.00 | 0.30 | 0.30 | 88 | 1016.4 |
| 20260906012354 | 24 | 217 | 0.0 | 0.0 | 0.00 | 0.30 | 0.30 | 86 | 1016.3 |
| 20260906011852 | 24 | 217 | 0.0 | 0.0 | 0.00 | 0.30 | 0.30 | 85 | 1016.2 |
| 20260906011349 | 24 | 217 | 0.0 | 1.6 | 0.00 | 0.30 | 0.30 | 85 | 1016.1 |
| 20260906011106 | 24 | 217 | 0.0 | 1.6 | 0.00 | 0.30 | 0.30 | 85 | 1016.0 |
| 20260906010345 | 24 | 199 | 0.0 | 0.0 | 0.00 | 0.30 | 0.30 | 85 | 1015.9 |
| 20260906005842 | 24 | 199 | 0.0 | 0.0 | 0.00 | 0.30 | 0.30 | 85 | 1015.9 |
| 20260906005344 | 24 | 199 | 0.0 | 0.0 | 0.00 | 0.30 | 0.30 | 84 | 1015.9 |
| 20260906004840 | 25 | 198 | 0.0 | 1.6 | 0.00 | 0.30 | 0.30 | 83 | 1015.9 |
| 20260906004341 | 25 | 198 | 0.0 | 1.6 | 0.00 | 0.30 | 0.30 | 83 | 1015.8 |
| 20260906004116 | 25 | 224 | 0.0 | 1.6 | 0.00 | 0.30 | 0.30 | 82 | 1015.8 |
| 20260906003337 | 25 | 276 | 0.0 | 0.0 | 0.00 | 0.30 | 0.30 | 82 | 1015.8 |
| 20260906002837 | 25 | 276 | 0.0 | 0.0 | 0.00 | 0.30 | 0.30 | 81 | 1015.6 |
| 20260906002338 | 25 | 276 | 0.0 | 0.0 | 0.00 | 0.30 | 0.30 | 81 | 1015.5 |
| 20260906001836 | 25 | 276 | 0.0 | 1.6 | 0.00 | 0.30 | 0.30 | 82 | 1015.6 |
| 20260906001338 | 25 | 276 | 0.0 | 1.6 | 0.00 | 0.30 | 0.30 | 79 | 1015.5 |
| 20260906000836 | 26 | 245 | 0.0 | 1.6 | 0.00 | 0.30 | 0.30 | 80 | 1015.4 |
| 20260906000338 | 26 | 245 | 0.0 | 1.6 | 0.00 | 0.30 | 0.30 | 79 | 1015.5 |
| 20260905235836 | 26 | 245 | 0.0 | 1.6 | 0.00 | 0.30 | 0.30 | 79 | 1015.4 |
| 20260905235604 | 26 | 261 | 0.0 | 1.6 | 0.00 | 0.30 | 0.30 | 79 | 1015.4 |
| 20260905234834 | 26 | 261 | 0.0 | 1.6 | 0.00 | 0.30 | 0.30 | 78 | 1015.4 |
| 20260905234602 | 26 | 261 | 0.0 | 1.6 | 0.00 | 0.30 | 0.30 | 79 | 1015.4 |
| 20260905234103 | 26 | 260 | 0.0 | 3.2 | 0.00 | 0.30 | 0.30 | 78 | 1015.4 |
| 20260905233332 | 26 | 260 | 0.0 | 3.2 | 0.00 | 0.30 | 0.30 | 77 | 1015.3 |
| 20260905233054 | 27 | 260 | 0.0 | 1.6 | 0.00 | 0.30 | 0.30 | 76 | 1015.3 |
| 20260905232335 | 27 | 260 | 0.0 | 1.6 | 0.00 | 0.30 | 0.30 | 76 | 1015.2 |
| 20260905231835 | 27 | 260 | 0.0 | 1.6 | 0.00 | 0.30 | 0.30 | 75 | 1015.1 |
| 20260905231334 | 27 | 259 | 0.0 | 0.0 | 0.00 | 0.30 | 0.30 | 74 | 1015.0 |
| 20260905230836 | 28 | 259 | 0.0 | 1.6 | 0.00 | 0.30 | 0.30 | 74 | 1015.1 |
| 20260905230329 | 28 | 259 | 0.0 | 1.6 | 0.00 | 0.30 | 0.30 | 73 | 1015.2 |
| 20260905230046 | 28 | 259 | 0.0 | 1.6 | 0.00 | 0.30 | 0.30 | 73 | 1015.2 |
| 20260905225317 | 28 | 259 | 0.0 | 1.6 | 0.00 | 0.30 | 0.30 | 70 | 1015.2 |
| 20260905224811 | 29 | 258 | 0.0 | 1.6 | 0.00 | 0.30 | 0.30 | 69 | 1015.4 |
| 20260905224523 | 29 | 257 | 0.0 | 4.8 | 0.00 | 0.30 | 0.30 | 69 | 1015.3 |
| 20260905223758 | 30 | 167 | 1.6 | 4.8 | 0.00 | 0.30 | 0.30 | 67 | 1015.3 |
| 20260905223252 | 30 | 203 | 0.0 | 3.2 | 0.00 | 0.30 | 0.30 | 66 | 1015.3 |
| 20260905222747 | 31 | 224 | 0.0 | 4.8 | 0.00 | 0.30 | 0.30 | 64 | 1015.4 |
| 20260905222240 | 31 | 153 | 1.6 | 4.8 | 0.00 | 0.30 | 0.30 | 65 | 1015.4 |
| 20260905221734 | 31 | 297 | 1.6 | 4.8 | 0.00 | 0.30 | 0.30 | 65 | 1015.4 |
| 20260905221229 | 31 | 305 | 1.6 | 4.8 | 0.00 | 0.30 | 0.30 | 63 | 1015.4 |
| 20260905220723 | 30 | 352 | 1.6 | 4.8 | 0.00 | 0.30 | 0.30 | 64 | 1015.3 |
| 20260905220216 | 30 | 354 | 1.6 | 3.2 | 0.00 | 0.30 | 0.30 | 66 | 1015.4 |
| 20260905215710 | 30 | 192 | 0.0 | 4.8 | 0.00 | 0.30 | 0.30 | 69 | 1015.3 |
| 20260905215204 | 29 | 274 | 0.0 | 4.8 | 0.00 | 0.30 | 0.30 | 70 | 1015.4 |
| 20260905214659 | 28 | 295 | 1.6 | 4.8 | 0.00 | 0.30 | 0.30 | 69 | 1015.5 |
| 20260905214152 | 29 | 226 | 1.6 | 4.8 | 0.00 | 0.30 | 0.30 | 71 | 1015.5 |
| 20260905213646 | 29 | 153 | 1.6 | 4.8 | 0.00 | 0.30 | 0.30 | 68 | 1015.6 |
| 20260905213140 | 29 | 219 | 1.6 | 6.4 | 0.00 | 0.30 | 0.30 | 70 | 1015.7 |
| 20260905212634 | 29 | 180 | 1.6 | 6.4 | 0.00 | 0.30 | 0.30 | 69 | 1015.7 |
| 20260905212129 | 29 | 198 | 1.6 | 4.8 | 0.00 | 0.30 | 0.30 | 69 | 1015.7 |
| 20260905211622 | 29 | 198 | 1.6 | 9.7 | 0.00 | 0.30 | 0.30 | 69 | 1015.8 |
| 20260905211118 | 29 | 176 | 1.6 | 9.7 | 0.00 | 0.30 | 0.30 | 69 | 1015.7 |
| 20260905210610 | 29 | 212 | 1.6 | 8.0 | 0.00 | 0.30 | 0.30 | 68 | 1015.5 |
| 20260905210104 | 29 | 252 | 1.6 | 8.0 | 0.00 | 0.30 | 0.30 | 68 | 1015.4 |
| 20260905205558 | 29 | 157 | 1.6 | 8.0 | 0.00 | 0.30 | 0.30 | 67 | 1015.4 |
| 20260905205052 | 30 | 347 | 3.2 | 9.7 | 0.00 | 0.30 | 0.30 | 66 | 1015.3 |
| 20260905204547 | 30 | 264 | 3.2 | 11.3 | 0.00 | 0.30 | 0.30 | 66 | 1015.3 |
| 20260905204041 | 30 | 212 | 3.2 | 11.3 | 0.00 | 0.30 | 0.30 | 67 | 1015.3 |
| 20260905203535 | 30 | 267 | 4.8 | 16.1 | 0.00 | 0.30 | 0.30 | 67 | 1015.3 |
| 20260905203028 | 30 | 344 | 4.8 | 16.1 | 0.00 | 0.30 | 0.30 | 66 | 1015.5 |
| 20260905202749 | 30 | 171 | 3.2 | 8.0 | 0.00 | 0.30 | 0.30 | 71 | 1015.5 |
| 20260905202016 | 30 | 157 | 3.2 | 11.3 | 0.00 | 0.30 | 0.30 | 72 | 1015.6 |
| 20260905201511 | 29 | 172 | 3.2 | 11.3 | 0.00 | 0.30 | 0.30 | 73 | 1015.5 |
| 20260905201005 | 29 | 162 | 3.2 | 9.7 | 0.00 | 0.30 | 0.30 | 73 | 1015.7 |
| 20260905200458 | 28 | 224 | 4.8 | 9.7 | 0.00 | 0.30 | 0.30 | 76 | 1015.7 |
| 20260905195953 | 28 | 176 | 1.6 | 9.7 | 0.00 | 0.30 | 0.30 | 74 | 1015.8 |
| 20260905195447 | 28 | 210 | 0.0 | 6.4 | 0.00 | 0.30 | 0.30 | 77 | 1015.6 |
| 20260905194941 | 28 | 276 | 0.0 | 6.4 | 0.00 | 0.30 | 0.30 | 76 | 1015.6 |
| 20260905194435 | 27 | 315 | 1.6 | 4.8 | 0.00 | 0.30 | 0.30 | 79 | 1015.6 |
| 20260905193929 | 27 | 292 | 1.6 | 9.7 | 0.00 | 0.30 | 0.30 | 79 | 1015.4 |
| 20260905193423 | 26 | 225 | 3.2 | 9.7 | 0.00 | 0.30 | 0.30 | 81 | 1015.4 |
| 20260905192916 | 26 | 202 | 1.6 | 9.7 | 0.00 | 0.30 | 0.30 | 83 | 1015.7 |
| 20260905192410 | 25 | 233 | 1.6 | 11.3 | 0.00 | 0.30 | 0.30 | 85 | 1015.8 |
| 20260905191906 | 25 | 52 | 4.8 | 11.3 | 0.00 | 0.30 | 0.30 | 87 | 1015.9 |
| 20260905191404 | 25 | 208 | 3.2 | 9.7 | 0.00 | 0.30 | 0.30 | 91 | 1016.0 |
| 20260905190900 | 25 | 229 | 3.2 | 8.0 | 0.00 | 0.30 | 0.30 | 91 | 1015.3 |
| 20260905190618 | 24 | 236 | 1.6 | 6.4 | 0.00 | 0.30 | 0.30 | 92 | 1015.1 |
| 20260905190124 | 24 | 213 | 0.0 | 1.6 | 0.00 | 0.30 | 0.30 | 92 | 1014.7 |
| 20260905185400 | 24 | 236 | 0.0 | 1.6 | 0.00 | 0.30 | 0.30 | 92 | 1014.3 |
| 20260905184901 | 24 | 115 | 0.0 | 3.2 | 0.18 | 0.30 | 0.30 | 92 | 1014.6 |
| 20260905184616 | 24 | 114 | 0.0 | 3.2 | 0.25 | 0.30 | 0.30 | 92 | 1014.8 |
| 20260905183859 | 24 | 114 | 1.6 | 8.0 | 0.25 | 0.30 | 0.30 | 91 | 1015.1 |
| 20260905183357 | 24 | 71 | 1.6 | 8.0 | 0.25 | 0.30 | 0.30 | 89 | 1015.8 |
| 20260905183120 | 25 | 341 | 1.6 | 6.4 | 0.25 | 0.30 | 0.30 | 88 | 1016.0 |
| 20260905182353 | 25 | 355 | 1.6 | 9.7 | 0.25 | 0.30 | 0.30 | 88 | 1015.9 |
| 20260905181858 | 25 | 89 | 1.6 | 11.3 | 0.25 | 0.30 | 0.30 | 87 | 1016.0 |
| 20260905180353 | 26 | 69 | 1.6 | 6.4 | 0.25 | 0.30 | 0.30 | 83 | 1016.6 |
| 20260905175853 | 27 | 57 | 3.2 | 17.7 | 0.25 | 0.30 | 0.30 | 83 | 1016.7 |
| 20260905175352 | 28 | 55 | 4.8 | 17.7 | 0.25 | 0.30 | 0.30 | 78 | 1016.9 |
| 20260905174853 | 31 | 335 | 6.4 | 20.9 | 0.08 | 0.13 | 0.13 | 69 | 1017.0 |
| 20260905174346 | 33 | 321 | 4.8 | 20.9 | 0.00 | 0.05 | 0.05 | 62 | 1016.3 |
| 20260905173841 | 33 | 40 | 3.2 | 11.3 | 0.00 | 0.05 | 0.05 | 63 | 1016.1 |
| 20260905173341 | 33 | 340 | 3.2 | 14.5 | 0.00 | 0.05 | 0.05 | 63 | 1016.1 |
| 20260905172838 | 33 | 26 | 3.2 | 14.5 | 0.00 | 0.05 | 0.05 | 61 | 1016.1 |
| 20260905172338 | 34 | 245 | 4.8 | 17.7 | 0.00 | 0.05 | 0.05 | 62 | 1016.4 |
| 20260905171841 | 34 | 267 | 3.2 | 17.7 | 0.00 | 0.05 | 0.05 | 60 | 1016.6 |
| 20260905171336 | 34 | 285 | 3.2 | 16.1 | 0.00 | 0.05 | 0.05 | 63 | 1016.6 |
| 20260905170836 | 34 | 255 | 4.8 | 19.3 | 0.00 | 0.05 | 0.05 | 62 | 1016.9 |
| 20260905170336 | 34 | 289 | 3.2 | 19.3 | 0.00 | 0.05 | 0.05 | 62 | 1016.8 |
| 20260905170053 | 34 | 174 | 1.6 | 6.4 | 0.00 | 0.05 | 0.05 | 63 | 1017.2 |
| 20260905165337 | 34 | 71 | 3.2 | 14.5 | 0.00 | 0.05 | 0.05 | 63 | 1017.3 |
| 20260905164836 | 33 | 311 | 3.2 | 14.5 | 0.00 | 0.05 | 0.05 | 62 | 1017.3 |
| 20260905164337 | 33 | 200 | 3.2 | 12.9 | 0.00 | 0.05 | 0.05 | 64 | 1017.3 |
| 20260905163837 | 33 | 6 | 3.2 | 11.3 | 0.00 | 0.05 | 0.05 | 64 | 1017.4 |
| 20260905163337 | 33 | 194 | 1.6 | 9.7 | 0.00 | 0.05 | 0.05 | 64 | 1017.2 |
| 20260905163059 | 33 | 54 | 1.6 | 9.7 | 0.00 | 0.05 | 0.05 | 64 | 1017.3 |
| 20260905162337 | 33 | 30 | 3.2 | 12.9 | 0.00 | 0.05 | 0.05 | 67 | 1017.4 |
| 20260905162321 | 33 | 67 | 1.6 | 12.9 | 0.00 | 0.05 | 0.05 | 65 | 1017.5 |
| 20260905161334 | 33 | 331 | 0.0 | 8.0 | 0.00 | 0.05 | 0.05 | 66 | 1017.5 |
| 20260905160834 | 33 | 326 | 1.6 | 14.5 | 0.00 | 0.05 | 0.05 | 65 | 1017.3 |
| 20260905160334 | 33 | 23 | 3.2 | 14.5 | 0.00 | 0.05 | 0.05 | 69 | 1017.4 |
| 20260905155834 | 33 | 47 | 1.6 | 12.9 | 0.00 | 0.05 | 0.05 | 66 | 1017.5 |
| 20260905155334 | 33 | 31 | 1.6 | 9.7 | 0.00 | 0.05 | 0.05 | 66 | 1017.6 |
| 20260905154835 | 33 | 55 | 1.6 | 9.7 | 0.00 | 0.05 | 0.05 | 67 | 1017.5 |
| 20260905154333 | 33 | 13 | 1.6 | 8.0 | 0.00 | 0.05 | 0.05 | 69 | 1017.5 |
| 20260905153835 | 33 | 269 | 0.0 | 6.4 | 0.00 | 0.05 | 0.05 | 69 | 1017.7 |
| 20260905153330 | 33 | 18 | 1.6 | 6.4 | 0.00 | 0.05 | 0.05 | 68 | 1017.6 |
| 20260905153052 | 33 | 230 | 1.6 | 8.0 | 0.00 | 0.05 | 0.05 | 70 | 1017.8 |
| 20260905152330 | 33 | 1 | 1.6 | 8.0 | 0.00 | 0.05 | 0.05 | 69 | 1017.7 |
| 20260905151829 | 32 | 171 | 0.0 | 3.2 | 0.00 | 0.05 | 0.05 | 70 | 1017.7 |
| 20260905151331 | 32 | 145 | 0.0 | 3.2 | 0.00 | 0.05 | 0.05 | 70 | 1017.7 |
| 20260905150832 | 32 | 15 | 1.6 | 8.0 | 0.00 | 0.05 | 0.05 | 71 | 1017.7 |
| 20260905150331 | 32 | 227 | 1.6 | 8.0 | 0.00 | 0.05 | 0.05 | 74 | 1017.6 |
| 20260905145831 | 31 | 276 | 3.2 | 9.7 | 0.00 | 0.05 | 0.05 | 74 | 1017.6 |
| 20260905145332 | 31 | 205 | 3.2 | 9.7 | 0.00 | 0.05 | 0.05 | 75 | 1017.7 |
| 20260905144825 | 31 | 198 | 1.6 | 6.4 | 0.00 | 0.05 | 0.05 | 77 | 1017.7 |
| 20260905144543 | 31 | 266 | 3.2 | 8.0 | 0.00 | 0.05 | 0.05 | 76 | 1017.9 |
| 20260905144048 | 30 | 183 | 3.2 | 8.0 | 0.00 | 0.05 | 0.05 | 79 | 1017.8 |
| 20260905143312 | 30 | 175 | 1.6 | 8.0 | 0.00 | 0.05 | 0.05 | 78 | 1018.0 |
| 20260905142810 | 30 | 222 | 1.6 | 6.4 | 0.00 | 0.05 | 0.05 | 76 | 1017.9 |
| 20260905142309 | 30 | 261 | 1.6 | 9.7 | 0.00 | 0.05 | 0.05 | 79 | 1017.9 |
| 20260905141810 | 30 | 278 | 3.2 | 9.7 | 0.00 | 0.05 | 0.05 | 80 | 1017.8 |
| 20260905141309 | 30 | 195 | 3.2 | 9.7 | 0.00 | 0.05 | 0.05 | 79 | 1017.8 |
| 20260905140811 | 29 | 285 | 1.6 | 6.4 | 0.00 | 0.05 | 0.05 | 80 | 1017.7 |
| 20260905140311 | 29 | 229 | 1.6 | 6.4 | 0.00 | 0.05 | 0.05 | 81 | 1017.7 |
| 20260905135809 | 29 | 263 | 1.6 | 4.8 | 0.00 | 0.05 | 0.05 | 82 | 1017.6 |
| 20260905135308 | 28 | 217 | 1.6 | 6.4 | 0.00 | 0.05 | 0.05 | 82 | 1017.6 |
| 20260905134809 | 28 | 236 | 1.6 | 6.4 | 0.00 | 0.05 | 0.05 | 84 | 1017.7 |
| 20260905134310 | 28 | 178 | 1.6 | 4.8 | 0.00 | 0.05 | 0.05 | 86 | 1017.7 |
| 20260905133807 | 27 | 172 | 1.6 | 4.8 | 0.00 | 0.05 | 0.05 | 87 | 1017.6 |
| 20260905133308 | 27 | 170 | 0.0 | 3.2 | 0.00 | 0.05 | 0.05 | 88 | 1017.6 |
| 20260905132807 | 27 | 200 | 0.0 | 1.6 | 0.00 | 0.05 | 0.05 | 90 | 1017.6 |
| 20260905132308 | 26 | 226 | 0.0 | 1.6 | 0.00 | 0.05 | 0.05 | 91 | 1017.5 |
| 20260905132027 | 26 | 204 | 0.0 | 1.6 | 0.00 | 0.05 | 0.05 | 91 | 1017.4 |
| 20260905131303 | 25 | 227 | 0.0 | 3.2 | 0.00 | 0.05 | 0.05 | 92 | 1017.5 |
| 20260905130804 | 25 | 215 | 0.0 | 3.2 | 0.00 | 0.05 | 0.05 | 92 | 1017.5 |
| 20260905130258 | 25 | 212 | 0.0 | 3.2 | 0.00 | 0.05 | 0.05 | 94 | 1017.5 |
| 20260905125752 | 25 | 221 | 1.6 | 6.4 | 0.00 | 0.05 | 0.05 | 94 | 1017.5 |
| 20260905125246 | 24 | 201 | 1.6 | 6.4 | 0.00 | 0.05 | 0.05 | 96 | 1017.5 |
| 20260905124740 | 23 | 193 | 0.0 | 6.4 | 0.00 | 0.05 | 0.05 | 98 | 1017.6 |
| 20260905124234 | 23 | 246 | 0.0 | 3.2 | 0.00 | 0.05 | 0.05 | 99 | 1017.5 |
| 20260905123957 | 23 | 195 | 0.0 | 1.6 | 0.00 | 0.05 | 0.05 | 100 | 1017.5 |
| 20260905123222 | 23 | 309 | 0.0 | 0.0 | 0.00 | 0.05 | 0.05 | 99 | 1017.5 |
| 20260905122946 | 23 | 309 | 0.0 | 0.0 | 0.00 | 0.05 | 0.05 | 99 | 1017.5 |
| 20260905122443 | 22 | 309 | 0.0 | 0.0 | 0.00 | 0.05 | 0.05 | 100 | 1017.5 |
| 20260905121921 | 22 | 309 | 0.0 | 0.0 | 0.00 | 0.05 | 0.05 | 100 | 1017.5 |
| 20260905121158 | 22 | 309 | 0.0 | 1.6 | 0.00 | 0.05 | 0.05 | 100 | 1017.6 |
| 20260905120652 | 22 | 320 | 0.0 | 1.6 | 0.00 | 0.05 | 0.05 | 100 | 1017.6 |
| 20260905120146 | 21 | 262 | 0.0 | 1.6 | 0.00 | 0.05 | 0.05 | 100 | 1017.6 |
| 20260905115640 | 21 | 326 | 0.0 | 0.0 | 0.00 | 0.05 | 0.05 | 100 | 1017.5 |
| 20260905115134 | 21 | 330 | 0.0 | 0.0 | 0.00 | 0.05 | 0.05 | 100 | 1017.5 |
| 20260905114628 | 21 | 8 | 0.0 | 0.0 | 0.00 | 0.05 | 0.05 | 100 | 1017.2 |
| 20260905114122 | 21 | 8 | 0.0 | 0.0 | 0.00 | 0.05 | 0.05 | 100 | 1017.3 |
| 20260905113616 | 21 | 8 | 0.0 | 1.6 | 0.00 | 0.05 | 0.05 | 100 | 1017.3 |
| 20260905113111 | 21 | 8 | 0.0 | 1.6 | 0.00 | 0.05 | 0.05 | 100 | 1017.4 |
| 20260905112611 | 21 | 48 | 0.0 | 0.0 | 0.00 | 0.05 | 0.05 | 100 | 1017.2 |
| 20260905112112 | 21 | 48 | 0.0 | 0.0 | 0.00 | 0.05 | 0.05 | 100 | 1017.2 |